GW0552 Weather Reports


Display with metric or nautical units.
time (UTC)temp
F
wind
direction
speed
MPH
gust
MPH
rain 1hr
in
rain 24hr
in
rain mn
in
humidity
%
barometer
mb
20260831061756 70 123 0.0 0.0 0.00 0.00 0.00 99 1015.4
20260831061251 70 123 0.0 0.0 0.00 0.00 0.00 99 1015.5
20260831060748 70 123 0.0 0.0 0.00 0.00 0.00 99 1015.3
20260831060247 70 123 0.0 0.0 0.00 0.00 0.00 99 1015.4
20260831055747 71 123 0.0 0.0 0.00 0.00 0.00 99 1015.5
20260831055242 71 123 0.0 0.0 0.00 0.00 0.00 99 1015.5
20260831054737 71 123 0.0 0.0 0.00 0.00 0.00 99 1015.7
20260831054232 71 123 0.0 0.0 0.00 0.00 0.00 99 1015.4
20260831053731 71 123 0.0 0.0 0.00 0.00 0.00 99 1015.4
20260831053230 71 123 0.0 0.0 0.00 0.00 0.00 99 1015.4
20260831052729 71 123 0.0 0.0 0.00 0.00 0.00 99 1015.8
20260831052223 71 123 0.0 0.0 0.00 0.00 0.00 99 1015.8
20260831051721 71 123 0.0 0.0 0.00 0.00 0.00 99 1015.5
20260831051220 71 123 0.0 0.0 0.00 0.00 0.00 99 1015.4
20260831050715 72 123 0.0 0.0 0.00 0.00 0.00 99 1015.5
20260831050214 71 123 0.0 0.0 0.00 0.00 0.00 99 1015.5
20260831045709 71 123 0.0 0.0 0.00 0.00 0.00 99 1015.7
20260831045204 72 123 0.0 0.0 0.00 0.00 0.00 99 1015.5
20260831044658 72 124 0.0 0.0 0.00 0.00 0.00 99 1015.7
20260831044153 72 123 0.0 0.0 0.00 0.00 0.00 99 1015.5
20260831043649 72 123 0.0 0.0 0.00 0.00 0.00 99 1015.8
20260831043144 72 123 0.0 0.0 0.00 0.00 0.00 99 1015.7
20260831042643 72 123 0.0 0.0 0.00 0.00 0.00 99 1015.9
20260831042138 72 123 0.0 0.0 0.00 0.00 0.00 99 1015.7
20260831041632 72 123 0.0 0.0 0.00 0.00 0.00 99 1015.5
20260831041127 72 123 0.0 0.0 0.00 0.00 0.00 99 1015.8
20260831040622 72 123 0.0 0.0 0.00 0.00 0.00 99 1015.9
20260831040121 73 125 0.0 0.0 0.00 0.00 0.00 99 1015.9
20260831035619 73 126 0.0 0.0 0.00 0.87 0.87 99 1015.9
20260831035114 73 125 0.0 0.0 0.00 0.87 0.87 99 1016.0
20260831034613 73 125 0.0 0.0 0.00 0.87 0.87 99 1016.1
20260831034109 73 125 0.0 0.0 0.00 0.87 0.87 99 1015.9
20260831033604 73 125 0.0 0.0 0.00 0.87 0.87 99 1016.2
20260831033059 73 125 0.0 0.0 0.00 0.87 0.87 99 1016.1
20260831032559 73 125 0.0 0.0 0.00 0.87 0.87 99 1016.0
20260831032054 73 125 0.0 0.0 0.00 0.87 0.87 99 1016.0
20260831031554 74 125 0.0 0.0 0.00 0.87 0.87 99 1015.9
20260831031054 73 125 0.0 0.0 0.00 0.87 0.87 99 1016.0
20260831030553 73 125 0.0 0.0 0.00 0.87 0.87 99 1015.9
20260831030052 74 125 0.0 0.0 0.00 0.87 0.87 99 1016.0
20260831025551 74 126 0.0 0.0 0.00 0.87 0.87 99 1016.1
20260831025046 74 123 0.0 0.0 0.00 0.87 0.87 99 1015.8
20260831024542 74 124 0.0 0.0 0.00 0.87 0.87 99 1016.2
20260831024040 74 122 0.0 0.0 0.00 0.87 0.87 99 1015.8
20260831023539 74 122 0.0 0.0 0.00 0.87 0.87 99 1015.7
20260831023033 74 122 0.0 0.0 0.00 0.87 0.87 99 1015.9
20260831022533 74 124 0.0 0.0 0.00 0.87 0.87 99 1015.8
20260831022028 74 123 0.0 0.0 0.00 0.87 0.87 99 1015.8
20260831021527 74 125 0.0 0.0 0.00 0.87 0.87 99 1016.0
20260831021023 74 125 0.0 0.0 0.00 0.87 0.87 99 1016.1
20260831020518 74 125 0.0 0.0 0.00 0.87 0.87 99 1015.8
20260831020013 74 125 0.0 0.0 0.00 0.87 0.87 99 1015.8
20260831015509 74 123 0.0 0.0 0.00 0.87 0.87 99 1015.9
20260831015004 74 123 0.0 0.0 0.00 0.87 0.87 99 1015.8
20260831014458 74 123 0.0 0.0 0.00 0.87 0.87 99 1015.9
20260831013953 75 124 0.0 0.0 0.00 0.87 0.87 99 1015.5
20260831013449 75 123 0.0 0.0 0.00 0.87 0.87 99 1015.9
20260831012943 75 123 0.0 0.0 0.00 0.87 0.87 99 1015.9
20260831012439 75 127 0.0 0.0 0.00 0.87 0.87 99 1015.8
20260831011938 75 127 0.0 0.0 0.00 0.87 0.87 99 1015.8
20260831011433 75 127 0.0 0.0 0.00 0.87 0.87 99 1015.8
20260831010929 75 127 0.0 0.0 0.00 0.87 0.87 99 1015.5
20260831010424 75 127 0.0 0.0 0.00 0.87 0.87 99 1015.7
20260831005919 75 127 0.0 0.0 0.00 0.87 0.87 99 1015.7
20260831005415 75 127 0.0 0.0 0.00 0.87 0.87 99 1015.2
20260831004909 75 127 0.0 0.0 0.00 0.87 0.87 99 1015.2
20260831004406 75 127 0.0 0.0 0.00 0.87 0.87 99 1015.2
20260831003901 75 127 0.0 0.0 0.00 0.87 0.87 99 1015.1
20260831003357 75 128 0.0 0.0 0.00 0.87 0.87 99 1015.0
20260831002856 75 127 0.0 0.0 0.00 0.87 0.87 99 1015.0
20260831002355 76 127 0.0 0.0 0.00 0.87 0.87 99 1015.3
20260831001851 76 127 0.0 0.0 0.00 0.87 0.87 99 1015.0
20260831001351 76 127 0.0 0.0 0.00 0.87 0.87 98 1015.2
20260831000849 76 127 0.0 0.0 0.00 0.87 0.87 98 1014.8
20260831000344 77 127 0.0 0.0 0.00 0.87 0.87 98 1014.8
20260830235842 77 127 0.0 0.0 0.00 0.87 0.87 98 1015.2
20260830235337 78 127 0.0 0.0 0.00 0.87 0.87 97 1015.0
20260830234833 78 127 0.0 0.0 0.00 0.87 0.87 97 1014.9
20260830234328 78 127 0.0 0.0 0.00 0.87 0.87 96 1014.9
20260830233824 79 127 0.0 0.0 0.00 0.87 0.87 96 1014.8
20260830233319 79 127 0.0 0.0 0.00 0.87 0.87 96 1014.8
20260830232815 80 127 0.0 0.0 0.00 0.87 0.87 96 1014.6
20260830232310 80 127 0.0 0.0 0.00 0.87 0.87 96 1014.5
20260830231806 80 127 0.0 0.0 0.00 0.87 0.87 96 1014.3
20260830231301 80 127 0.0 0.0 0.00 0.87 0.87 96 1014.4
20260830230755 79 127 0.0 0.0 0.00 0.87 0.87 96 1014.3
20260830230250 80 125 1.0 1.0 0.00 0.87 0.87 96 1014.3
20260830225750 80 127 1.0 1.0 0.00 0.87 0.87 96 1014.1
20260830225245 80 130 1.0 1.0 0.00 0.87 0.87 95 1014.3
20260830224744 80 125 1.0 1.0 0.00 0.87 0.87 95 1014.3
20260830224240 80 126 1.0 1.0 0.00 0.87 0.87 95 1014.4
20260830223736 79 128 2.0 2.0 0.00 0.87 0.87 95 1014.3
20260830223232 79 128 2.0 2.0 0.00 0.87 0.87 96 1014.5
20260830222726 79 132 2.0 2.0 0.00 0.87 0.87 96 1014.6
20260830222221 79 129 2.0 2.0 0.00 0.87 0.87 96 1014.6
20260830221717 79 128 3.0 3.0 0.00 0.87 0.87 95 1014.6
20260830221214 79 131 3.0 3.0 0.00 0.87 0.87 95 1014.6
20260830220708 79 128 1.0 1.0 0.00 0.87 0.87 96 1015.0
20260830220202 79 128 1.0 2.0 0.00 0.87 0.87 96 1014.9
20260830215701 79 127 1.0 1.0 0.00 0.87 0.87 96 1014.7
20260830215155 78 125 1.0 1.0 0.00 0.87 0.87 96 1014.9
20260830214651 78 127 1.0 1.0 0.00 0.87 0.87 96 1014.8
20260830214145 78 129 0.0 0.0 0.00 0.87 0.87 96 1015.0
20260830213644 78 134 2.0 2.0 0.00 0.87 0.87 97 1014.9
20260830213140 78 129 2.0 2.0 0.00 0.87 0.87 96 1014.8
20260830212636 78 121 0.0 0.0 0.00 0.87 0.87 95 1014.9
20260830212131 78 126 0.0 0.0 0.00 0.87 0.87 95 1014.9
20260830211626 79 128 2.0 2.0 0.00 0.87 0.87 94 1014.9
20260830211125 78 121 1.0 1.0 0.00 0.87 0.87 93 1015.0
20260830210621 78 108 2.0 2.0 0.00 0.87 0.87 94 1015.3
20260830210120 79 121 0.0 0.0 0.00 0.87 0.87 94 1015.4
20260830205617 79 121 0.0 0.0 0.00 0.87 0.87 93 1015.1
20260830205113 79 121 0.0 0.0 0.00 0.87 0.87 93 1015.1
20260830204612 79 119 0.0 0.0 0.00 0.87 0.87 93 1015.2
20260830204111 79 121 0.0 0.0 0.00 0.87 0.87 93 1015.3
20260830203608 79 120 0.0 0.0 0.00 0.87 0.87 93 1015.4
20260830203107 79 117 0.0 0.0 0.00 0.87 0.87 92 1015.7
20260830202602 79 114 0.0 1.0 0.00 0.87 0.87 91 1015.2
20260830202058 80 106 2.0 2.0 0.00 0.87 0.87 92 1015.8
20260830201557 80 123 0.0 0.0 0.00 0.87 0.87 90 1015.8
20260830201052 80 54 2.0 3.0 0.00 0.87 0.87 89 1015.9
20260830200548 82 133 1.0 1.0 0.00 0.87 0.87 87 1015.8
20260830200046 81 149 3.0 3.0 0.00 0.87 0.87 88 1015.8
20260830195542 80 141 2.0 2.0 0.00 0.87 0.87 93 1015.8
20260830195040 79 137 2.0 2.0 0.00 0.87 0.87 95 1015.5
20260830194539 78 137 1.0 2.0 0.00 0.87 0.87 95 1015.9
20260830194039 77 141 2.0 2.0 0.00 0.87 0.87 97 1015.9
20260830193538 76 179 4.0 5.0 0.00 0.87 0.87 97 1016.0
20260830193034 76 127 1.0 1.0 0.00 0.87 0.87 96 1016.1
20260830192529 76 130 0.0 0.0 0.00 0.87 0.87 96 1016.3
20260830192024 75 124 1.0 1.0 0.00 0.87 0.87 96 1016.2
20260830191519 75 130 2.0 2.0 0.00 0.87 0.87 96 1016.6
20260830191014 75 141 2.0 2.0 0.24 0.87 0.87 96 1016.6
20260830190509 73 130 3.0 3.0 0.78 0.86 0.86 96 1016.6
20260830190004 72 112 7.0 8.0 1.63 0.83 0.83 97 1016.8
20260830185458 73 116 1.0 2.0 2.46 0.74 0.74 92 1017.2
20260830184953 74 312 3.0 3.0 3.24 0.56 0.56 92 1017.4
20260830184452 75 5 7.0 11.0 1.44 0.26 0.26 91 1017.1
20260830183942 76 160 3.0 3.0 0.00 0.02 0.02 87 1016.8
20260830183441 78 215 4.0 5.0 0.00 0.02 0.02 87 1016.4
20260830182932 80 165 3.0 3.0 0.00 0.02 0.02 87 1016.3
20260830182427 80 130 1.0 1.0 0.05 0.02 0.02 82 1016.4
20260830181923 82 149 3.0 3.0 0.12 0.02 0.02 81 1016.6
20260830181418 86 100 1.0 2.0 0.07 0.01 0.01 75 1016.6
20260830180913 87 186 3.0 5.0 0.00 0.00 0.00 73 1016.3
20260830180412 88 133 5.0 7.0 0.00 0.00 0.00 70 1016.7
20260830175912 89 137 6.0 7.0 0.00 0.00 0.00 68 1016.7
20260830175412 90 126 7.0 9.0 0.00 0.00 0.00 69 1016.8
20260830174907 89 158 4.0 5.0 0.00 0.00 0.00 69 1016.8
20260830174402 89 104 3.0 3.0 0.00 0.00 0.00 69 1016.7
20260830173857 89 131 2.0 3.0 0.00 0.00 0.00 70 1016.9
20260830173353 88 149 3.0 5.0 0.00 0.00 0.00 72 1017.0
20260830172849 88 139 4.0 6.0 0.00 0.00 0.00 72 1017.1
20260830172345 88 139 4.0 5.0 0.00 0.00 0.00 71 1017.3
20260830171840 87 119 2.0 2.0 0.00 0.00 0.00 70 1017.4
20260830171336 87 99 6.0 7.0 0.00 0.00 0.00 71 1017.5
20260830170831 88 132 5.0 7.0 0.00 0.00 0.00 69 1017.5
20260830170330 87 129 4.0 6.0 0.00 0.00 0.00 72 1017.4
20260830165829 87 125 3.0 3.0 0.00 0.00 0.00 71 1017.5
20260830165325 87 116 2.0 2.0 0.00 0.00 0.00 73 1017.5
20260830164821 88 137 4.0 5.0 0.00 0.00 0.00 71 1017.8
20260830164317 88 150 4.0 5.0 0.00 0.00 0.00 70 1017.7
20260830163814 87 87 4.0 5.0 0.00 0.00 0.00 74 1017.5
20260830163308 87 117 2.0 2.0 0.00 0.00 0.00 71 1017.5
20260830162803 88 102 4.0 5.0 0.00 0.00 0.00 71 1017.9
20260830162300 87 124 1.0 1.0 0.00 0.00 0.00 71 1017.6
20260830161755 86 147 3.0 3.0 0.00 0.00 0.00 71 1017.8
20260830161254 86 103 3.0 5.0 0.00 0.00 0.00 73 1017.7
20260830160749 85 115 3.0 6.0 0.00 0.00 0.00 76 1017.8
20260830160249 84 133 4.0 6.0 0.00 0.00 0.00 75 1018.0
20260830155745 85 59 4.0 6.0 0.00 0.00 0.00 73 1017.7
20260830155241 86 310 5.0 6.0 0.00 0.00 0.00 71 1017.7
20260830154736 87 90 1.0 1.0 0.00 0.00 0.00 72 1017.7
20260830154232 86 131 1.0 1.0 0.00 0.00 0.00 71 1017.9
20260830153728 85 125 3.0 3.0 0.00 0.00 0.00 73 1017.9
20260830153224 86 120 3.0 3.0 0.00 0.00 0.00 72 1017.7
20260830152721 86 169 3.0 3.0 0.00 0.00 0.00 72 1017.9
20260830152216 84 166 3.0 3.0 0.00 0.00 0.00 77 1017.7
20260830151711 84 136 3.0 3.0 0.00 0.00 0.00 75 1017.9
20260830151210 84 147 3.0 3.0 0.00 0.00 0.00 76 1017.8
20260830150705 84 185 7.0 9.0 0.00 0.00 0.00 75 1017.9
20260830150205 83 102 4.0 6.0 0.00 0.00 0.00 76 1017.8
20260830145700 83 127 4.0 5.0 0.00 0.00 0.00 75 1018.0
20260830145155 84 57 5.0 6.0 0.00 0.00 0.00 75 1017.8
20260830144650 84 153 3.0 3.0 0.00 0.00 0.00 75 1017.8
20260830144146 83 131 3.0 3.0 0.00 0.00 0.00 76 1017.6
20260830143642 83 137 3.0 3.0 0.00 0.00 0.00 77 1017.6
20260830143140 82 125 2.0 2.0 0.00 0.00 0.00 78 1017.4
20260830142635 82 114 2.0 2.0 0.00 0.00 0.00 78 1017.5
20260830142130 82 137 4.0 5.0 0.00 0.00 0.00 78 1017.5
20260830141625 81 127 3.0 3.0 0.00 0.00 0.00 80 1017.2
20260830141120 80 152 3.0 3.0 0.00 0.00 0.00 81 1017.4
20260830140615 80 120 3.0 5.0 0.00 0.00 0.00 82 1017.5
20260830140115 79 119 3.0 5.0 0.00 0.00 0.00 83 1017.4
20260830135610 79 122 5.0 6.0 0.00 0.00 0.00 83 1017.2
20260830135105 78 128 3.0 3.0 0.00 0.00 0.00 85 1017.3
20260830134601 78 110 1.0 2.0 0.00 0.00 0.00 86 1017.5
20260830134056 77 108 3.0 3.0 0.00 0.00 0.00 87 1017.3
20260830133551 77 120 2.0 2.0 0.00 0.00 0.00 88 1017.3
20260830133046 76 121 3.0 3.0 0.00 0.00 0.00 88 1017.4
20260830132542 76 59 4.0 5.0 0.00 0.00 0.00 89 1017.5
20260830132037 75 119 2.0 2.0 0.00 0.00 0.00 91 1017.3
20260830131536 74 85 4.0 5.0 0.00 0.00 0.00 91 1017.4
20260830131031 74 117 3.0 5.0 0.00 0.00 0.00 93 1017.2
20260830130526 73 128 3.0 5.0 0.00 0.00 0.00 95 1017.4
20260830130022 72 135 3.0 3.0 0.00 0.00 0.00 97 1017.3
20260830125516 71 118 2.0 3.0 0.00 0.00 0.00 99 1017.5
20260830125015 71 124 0.0 0.0 0.00 0.00 0.00 99 1017.3
20260830124509 71 124 0.0 0.0 0.00 0.00 0.00 99 1017.3
20260830124005 70 125 1.0 2.0 0.00 0.00 0.00 99 1017.3
20260830123502 69 130 2.0 2.0 0.00 0.00 0.00 99 1017.4
20260830123001 68 123 0.0 0.0 0.00 0.00 0.00 99 1017.3
20260830122459 67 126 0.0 0.0 0.00 0.00 0.00 99 1017.3
20260830121954 67 125 0.0 0.0 0.00 0.00 0.00 99 1017.3
20260830121449 67 125 0.0 0.0 0.00 0.00 0.00 99 1017.1
20260830120943 66 125 0.0 0.0 0.00 0.00 0.00 99 1017.1
20260830120439 66 126 0.0 0.0 0.00 0.00 0.00 99 1017.2
20260830115936 66 125 0.0 0.0 0.00 0.00 0.00 99 1017.2
20260830115431 65 126 0.0 0.0 0.00 0.00 0.00 99 1017.1
20260830114927 65 126 0.0 0.0 0.00 0.00 0.00 99 1017.1
20260830114423 65 125 0.0 0.0 0.00 0.00 0.00 99 1017.3
20260830113923 64 125 0.0 0.0 0.00 0.00 0.00 99 1017.1
20260830113418 64 125 0.0 0.0 0.00 0.00 0.00 99 1017.2
20260830112914 64 126 0.0 0.0 0.00 0.00 0.00 99 1017.1
20260830112409 64 125 0.0 0.0 0.00 0.00 0.00 99 1017.1
20260830111905 64 125 0.0 0.0 0.00 0.00 0.00 99 1017.1
20260830111401 64 126 0.0 0.0 0.00 0.00 0.00 99 1016.8
20260830110855 64 126 0.0 0.0 0.00 0.00 0.00 99 1016.8
20260830110352 63 126 0.0 0.0 0.00 0.00 0.00 99 1016.6
20260830105850 63 126 0.0 0.0 0.00 0.00 0.00 99 1016.7
20260830105347 63 126 0.0 0.0 0.00 0.00 0.00 99 1016.6
20260830104843 63 126 0.0 0.0 0.00 0.00 0.00 99 1016.4
20260830104340 63 126 0.0 0.0 0.00 0.00 0.00 99 1016.5
20260830103838 63 126 0.0 0.0 0.00 0.00 0.00 99 1016.7
20260830103335 64 127 0.0 0.0 0.00 0.00 0.00 99 1016.8
20260830102832 64 127 0.0 0.0 0.00 0.00 0.00 99 1016.6
20260830102328 64 127 0.0 0.0 0.00 0.00 0.00 99 1016.7
20260830101825 64 127 0.0 0.0 0.00 0.00 0.00 99 1016.7
20260830101320 64 127 0.0 0.0 0.00 0.00 0.00 99 1016.6
20260830100819 64 127 0.0 0.0 0.00 0.00 0.00 99 1016.8
20260830100318 64 127 0.0 0.0 0.00 0.00 0.00 99 1016.9
20260830095251 64 127 0.0 0.0 0.00 0.00 0.00 99 1016.8
20260830094746 64 127 0.0 0.0 0.00 0.00 0.00 99 1016.8
20260830094242 64 127 0.0 0.0 0.00 0.00 0.00 99 1016.9
20260830093737 64 127 0.0 0.0 0.00 0.00 0.00 99 1016.8
20260830093233 64 127 0.0 0.0 0.00 0.00 0.00 99 1016.8
20260830092732 64 127 0.0 0.0 0.00 0.00 0.00 99 1016.5
20260830092230 65 127 0.0 0.0 0.00 0.00 0.00 99 1016.8
20260830091725 65 128 0.0 0.0 0.00 0.00 0.00 99 1016.8
20260830091224 65 126 0.0 0.0 0.00 0.00 0.00 99 1016.8
20260830090718 65 128 0.0 0.0 0.00 0.00 0.00 99 1016.7
20260830085407 64 127 0.0 0.0 0.00 0.00 0.00 99 1016.6
20260830084903 64 127 0.0 0.0 0.00 0.00 0.00 99 1016.6
20260830084357 65 127 0.0 0.0 0.00 0.00 0.00 99 1016.7
20260830083853 64 127 0.0 0.0 0.00 0.00 0.00 99 1016.6
20260830083349 64 127 0.0 0.0 0.00 0.00 0.00 99 1016.7
20260830082848 64 127 0.0 0.0 0.00 0.00 0.00 99 1016.7
20260830082343 65 127 0.0 0.0 0.00 0.00 0.00 99 1016.6
20260830081839 65 127 0.0 0.0 0.00 0.00 0.00 99 1016.4
20260830081338 65 127 0.0 0.0 0.00 0.00 0.00 99 1016.5
20260830080833 65 127 0.0 0.0 0.00 0.00 0.00 99 1016.6
20260830080330 65 127 0.0 0.0 0.00 0.00 0.00 99 1016.4
20260830075828 65 127 0.0 0.0 0.00 0.00 0.00 99 1016.6
20260830075324 65 127 0.0 0.0 0.00 0.00 0.00 99 1016.5
20260830074819 65 127 0.0 0.0 0.00 0.00 0.00 99 1016.4
20260830074315 66 127 0.0 0.0 0.00 0.00 0.00 99 1016.5
20260830073811 66 127 0.0 0.0 0.00 0.00 0.00 99 1016.5
20260830073306 65 127 0.0 0.0 0.00 0.00 0.00 99 1016.4
20260830072800 65 127 0.0 0.0 0.00 0.00 0.00 99 1016.3
20260830072256 66 127 0.0 0.0 0.00 0.00 0.00 99 1016.4
20260830071755 66 127 0.0 0.0 0.00 0.00 0.00 99 1016.3
20260830071250 66 127 0.0 0.0 0.00 0.00 0.00 99 1016.3
20260830070749 66 127 0.0 0.0 0.00 0.00 0.00 99 1016.5
20260830070243 66 127 0.0 0.0 0.00 0.00 0.00 99 1016.4
20260830065743 66 127 0.0 0.0 0.00 0.00 0.00 99 1016.6
20260830065237 66 127 0.0 0.0 0.00 0.00 0.00 99 1016.6
20260830064735 66 127 0.0 0.0 0.00 0.00 0.00 99 1016.6
20260830064226 66 126 0.0 0.0 0.00 0.00 0.00 99 1016.8
20260830063726 66 127 1.0 1.0 0.00 0.00 0.00 99 1016.7
20260830063225 66 129 1.0 1.0 0.00 0.00 0.00 99 1016.6
20260830062719 66 126 0.0 0.0 0.00 0.00 0.00 99 1016.8